Home > Weather > Tuba City > Past weeks

Flag for USA Past Weather in Tuba City, Arizona, USA — Yesterday and Last 2 Weeks

Now
83 °F

Sunny.


Feels Like: 80 °F
Forecast: 60 / 97 °F
Wind: 8 mph from West

Location: Grand Canyon National Park Airport

Current Time: Jun 25, 2016 at 11:52:09 AM

Latest Report: Jun 25, 2016 at 10:54 AM


Visibility: 10 mi

Pressure: 29.90 "Hg (25.19 "Hg at 1510m altitude)

Humidity: 16%

Dew Point: 32 °F

Location of Tuba CityLocation

Past Weather in Tuba City — Graph

°F

Tuba City Temperature Yesterday

Maximum temperature yesterday: 91 °F (at 3:54 PM)
Minimum temperature yesterday: 48 °F (at 4:54 AM)
Average temperature yesterday: 72 °F

High & Low Weather Summary for the Past Weeks

 TemperatureHumidityPressure
High97 °F (Jun 20, 5:54 PM)93% (Jun 12, 4:54 AM)30.21 "Hg (Jun 12, 4:54 AM)
Low36 °F (Jun 18, 5:54 AM)4% (Jun 18, 3:54 PM)29.78 "Hg (Jun 14, 8:54 PM)
Average68 °F29%29.95 "Hg
* Reported Jun 10 12:54 PM — Jun 25 9:54 AM, Tuba City, Weather by CustomWeather, © 2016

Note: Actual official high and low records may vary slightly from our data, if they occured in-between our weather recording intervals... More about our weather records

Advertising

Tuba City Weather History for the Previous 24 Hours

Scroll right to see more
 ConditionsComfort  
Time TempWeatherWind HumidityBarometerVisibility
9:54 AM
Sat, Jun 25
81 °FSunny.6 mph18%29.89 "Hg10 mi
8:54 AM75 °FSunny.No wind22%29.90 "Hg10 mi
7:54 AM58 °FSunny.No wind33%29.93 "Hg10 mi
6:54 AM48 °FSunny.No wind39%29.95 "Hg10 mi
5:54 AM46 °FClear.No wind40%29.93 "Hg10 mi
4:54 AM47 °FClear.3 mph37%29.91 "Hg10 mi
3:54 AM49 °FClear.No wind35%29.89 "Hg10 mi
2:54 AM50 °FClear.No wind33%29.89 "Hg10 mi
1:54 AM53 °FClear.No wind30%29.89 "Hg10 mi
12:54 AM55 °FClear.3 mph28%29.89 "Hg10 mi
11:54 PM
Fri, Jun 24
56 °FClear.No wind26%29.90 "Hg10 mi
10:54 PM70 °FClear.3 mph16%29.84 "Hg10 mi
9:54 PM76 °FClear.7 mph13%29.80 "Hg10 mi
8:54 PM80 °FClear.8 mph12%29.78 "Hg10 mi
7:54 PM85 °FSunny.9 mph11%29.78 "Hg10 mi
6:54 PM87 °FSunny.12 mph9%29.83 "Hg10 mi
5:54 PM90 °FSunny.15 mph9%29.83 "Hg10 mi
4:54 PM91 °FSunny.14 mph9%29.84 "Hg10 mi
3:54 PM91 °FSunny.12 mph8%29.85 "Hg10 mi
2:54 PM90 °FSunny.9 mph10%29.88 "Hg10 mi
1:54 PM89 °FSunny.17 mph11%29.89 "Hg10 mi
12:54 PM86 °FSunny.10 mph12%29.90 "Hg10 mi
11:54 AM83 °FSunny.10 mph13%29.90 "Hg10 mi
Weather by CustomWeather, © 2016

See weather overviewHow to use our weather pages